sat.trackr.live / text

‹ back to catalog

SHIYAN-3 (SY-3)

NORAD 33433 · 2008-056A

PAYLOAD ACTIVE UNKNOWN

§ Identity

Operator
Country
PRC
Launch date
2008-11-05
Launch site
JSC
Launch vehicle
Mass (kg)
RCS (m²)
0.77

External: N2YO · Heavens-Above · Gunter

§ Orbital elements

Epoch: 2026-05-24T23:33:58.791744Z

Period
100.64 min
Inclination
98.6076°
Eccentricity
0.0013234
Mean motion
14.30793362 rev/d
Perigee alt
779.6 km
Apogee alt
798.6 km
Semi-major
7,167.2 km
B*
5.6193e-5
RAAN
171.7511°
Arg perigee
197.7305°
Mean anomaly
162.3417°
Rev number
91,548

§ Raw data

SHIYAN-3 (SY-3)1 33433U 08056A   26144.98193046  .00000103  00000+0  56193-4 0  99932 33433  98.6076 171.7511 0013234 197.7305 162.3417 14.30793362915481

JSON: /api/v1/satellites/33433 · /tle

For live sub-satellite position, see the globe view (requires WebGL).

§ Visibility from observer

Set your observer location to see the next 7 days of passes ≥ 10°. The values pass through the URL so the page stays shareable.

No JS? Fill the form by hand. The geolocation button needs JavaScript.

§ Radio — SatNOGS DB

ModeDescriptionDownlinkUplink
FM S-band telemetry 2.231 GHz

1 transmitter · refreshed weekly from db.satnogs.org